Weather in Makkaveyevo

Russia / Zabaykalsky Krai     51°45′11″N   113°57′22″E
temp.,
°C
wind,
m/s
gust,
m/s
humid.,
%
clouds,
%
prec.,
mm/h
press.,
hPa
HPBL,
m
29 january, sat
sat2900:00−28nw2110056 0.0 104011
03:00−29nw2110077 0.0 103914
06:00−30nw2110075 0.0 103816
09:00−30nw2110073 0.0 103816
12:00−21wnw238619 0.0 1034195
15:00−15wnw24695 0.0 1029420
18:00−21nw21955 0.0 10319
21:00−26nnw1110031 0.0 103410
30 january, sun
sun3000:00−28nw2110073 0.0 103612
03:00−29nnw2110082 0.0 103714
06:00−30nw2110048 0.0 103814
09:00−30nw2110071 0.0 103916
12:00−21nw238637 0.0 1036219
15:00−16nw24726 0.0 1034453
18:00−22nw21945 0.0 10369
21:00−27nnw211005 0.0 103910
31 january, mon
mon3100:00−29nw2110051 0.0 104111
03:00−30nw2110070 0.0 104112
06:00−31nw2110051 0.0 104214
09:00−32nw2110068 0.0 104215
12:00−22wnw238542 0.0 1038228
15:00−17nw247215 0.0 1035500
18:00−22nw11945 0.0 10369
21:00−28nnw1110053 0.0 10399
1 february, tue
tue100:00−30nnw1110053 0.0 104010
03:00−30nnw1110085 0.0 104012
06:00−30nnw11100100 0.0 103914
09:00−31nnw1110077 0.0 104012
12:00−22wnw228646 0.0 1037221
15:00−17nw247114 0.0 1034497
18:00−22nw11945 0.0 10369
21:00−28nnw211005 0.0 10399
2 february, wed
wed200:00−30nnw2110037 0.0 104111
03:00−31nnw2110065 0.0 104213
06:00−31nw2110068 0.0 104212
09:00−32nw2110075 0.0 104315
12:00−22wnw238636 0.0 1039221
15:00−17nw35706 0.0 1035540
18:00−22nw11935 0.0 10369
21:00−28nnw2110032 0.0 10399